Time,TemperatureF,DewpointF,PressureIn,WindDirection,WindDirectionDegrees,WindSpeedMPH,WindSpeedGustMPH,Humidity,HourlyPrecipIn,Conditions,Clouds,dailyrainin,SoftwareType,DateUTC
2013-04-14 00:03:00,35.9,-99.9,-100.00,West,270,3.0,8.0,-999,0.00,,,-99.99,WeatherLink 5.4,2013-04-14 04:03:00,
2013-04-14 00:33:00,35.5,-99.9,-100.00,West,270,2.0,8.0,-999,0.00,,,-99.99,WeatherLink 5.4,2013-04-14 04:33:00,
2013-04-14 01:03:00,35.5,-99.9,-100.00,West,270,2.0,8.0,-999,0.00,,,-99.99,WeatherLink 5.4,2013-04-14 05:03:00,
2013-04-14 01:33:00,35.2,-99.9,-100.00,West,270,3.0,7.0,-999,0.00,,,-99.99,WeatherLink 5.4,2013-04-14 05:33:00,
2013-04-14 02:03:00,35.0,-99.9,-100.00,WSW,247,3.0,7.0,-999,0.00,,,-99.99,WeatherLink 5.4,2013-04-14 06:03:00,
2013-04-14 02:33:00,34.9,-99.9,-100.00,WSW,247,2.0,8.0,-999,0.00,,,-99.99,WeatherLink 5.4,2013-04-14 06:33:00,
2013-04-14 03:03:00,34.1,-99.9,-100.00,WSW,247,0.0,3.0,-999,0.00,,,-99.99,WeatherLink 5.4,2013-04-14 07:03:00,
2013-04-14 03:33:00,34.1,-99.9,-100.00,WSW,247,0.0,4.0,-999,0.00,,,-99.99,WeatherLink 5.4,2013-04-14 07:33:00,
2013-04-14 04:03:00,34.7,-99.9,-100.00,WSW,247,0.0,3.0,-999,0.00,,,-99.99,WeatherLink 5.4,2013-04-14 08:03:00,
2013-04-14 04:33:00,34.5,-99.9,-100.00,North,-999,0.0,0.0,-999,0.00,,,-99.99,WeatherLink 5.4,2013-04-14 08:33:00,
2013-04-14 05:03:00,33.5,-99.9,-100.00,North,-999,0.0,0.0,-999,0.00,,,-99.99,WeatherLink 5.4,2013-04-14 09:03:00,
2013-04-14 05:33:00,33.5,-99.9,-100.00,North,-999,0.0,0.0,-999,0.00,,,-99.99,WeatherLink 5.4,2013-04-14 09:33:00,
2013-04-14 06:03:00,32.4,-99.9,-100.00,North,-999,0.0,0.0,-999,0.00,,,-99.99,WeatherLink 5.4,2013-04-14 10:03:00,
2013-04-14 06:33:00,32.2,-99.9,-100.00,WSW,247,0.0,3.0,-999,0.00,,,-99.99,WeatherLink 5.4,2013-04-14 10:33:00,
2013-04-14 07:03:00,32.4,-99.9,-100.00,WSW,247,0.0,3.0,-999,0.00,,,-99.99,WeatherLink 5.4,2013-04-14 11:03:00,
2013-04-14 07:33:00,32.7,-99.9,-100.00,WSW,247,1.0,5.0,-999,0.00,,,-99.99,WeatherLink 5.4,2013-04-14 11:33:00,
2013-04-14 08:03:00,34.0,-99.9,-100.00,WSW,247,1.0,6.0,-999,0.00,,,-99.99,WeatherLink 5.4,2013-04-14 12:03:00,
2013-04-14 08:33:00,34.9,-99.9,-100.00,WSW,247,1.0,6.0,-999,0.00,,,-99.99,WeatherLink 5.4,2013-04-14 12:33:00,
2013-04-14 09:30:00,36.3,-99.9,-100.00,WSW,247,1.0,5.0,-999,0.00,,,-99.99,WeatherLink 5.4,2013-04-14 13:30:00,
2013-04-14 10:00:00,39.6,-99.9,-100.00,WSW,247,2.0,9.0,-999,0.00,,,-99.99,WeatherLink 5.4,2013-04-14 14:00:00,
2013-04-14 10:30:00,39.3,-99.9,-100.00,WSW,247,3.0,8.0,-999,0.00,,,-99.99,WeatherLink 5.4,2013-04-14 14:30:00,
2013-04-14 11:00:00,39.8,-99.9,-100.00,WSW,247,3.0,8.0,-999,0.00,,,-99.99,WeatherLink 5.4,2013-04-14 15:00:00,
2013-04-14 11:30:00,39.8,-99.9,-100.00,WSW,247,3.0,9.0,-999,0.00,,,-99.99,WeatherLink 5.4,2013-04-14 15:30:00,
2013-04-14 12:00:00,40.4,-99.9,-100.00,West,270,2.0,8.0,-999,0.00,,,-99.99,WeatherLink 5.4,2013-04-14 16:00:00,
2013-04-14 12:30:00,41.6,-99.9,-100.00,WSW,247,1.0,7.0,-999,0.00,,,-99.99,WeatherLink 5.4,2013-04-14 16:30:00,
2013-04-14 13:00:00,44.0,-99.9,-100.00,SSW,202,0.0,3.0,-999,0.00,,,-99.99,WeatherLink 5.4,2013-04-14 17:00:00,
2013-04-14 13:30:00,44.4,-99.9,-100.00,SW,225,0.0,5.0,-999,0.00,,,-99.99,WeatherLink 5.4,2013-04-14 17:30:00,
2013-04-14 14:00:00,45.5,-99.9,-100.00,SW,225,0.0,4.0,-999,0.00,,,-99.99,WeatherLink 5.4,2013-04-14 18:00:00,
2013-04-14 14:30:00,45.3,-99.9,-100.00,North,-999,0.0,0.0,-999,0.00,,,-99.99,WeatherLink 5.4,2013-04-14 18:30:00,
2013-04-14 15:00:00,47.5,-99.9,-100.00,SW,225,0.0,3.0,-999,0.00,,,-99.99,WeatherLink 5.4,2013-04-14 19:00:00,
2013-04-14 15:30:00,49.3,-99.9,-100.00,SSW,202,1.0,4.0,-999,0.00,,,-99.99,WeatherLink 5.4,2013-04-14 19:30:00,
2013-04-14 16:00:00,50.6,-99.9,-100.00,SSW,202,1.0,6.0,-999,0.00,,,-99.99,WeatherLink 5.4,2013-04-14 20:00:00,
2013-04-14 16:30:00,52.0,-99.9,-100.00,SSE,157,0.0,5.0,-999,0.00,,,-99.99,WeatherLink 5.4,2013-04-14 20:30:00,
2013-04-14 17:00:00,52.5,-99.9,-100.00,ESE,112,1.0,6.0,-999,0.00,,,-99.99,WeatherLink 5.4,2013-04-14 21:00:00,
2013-04-14 17:30:00,53.0,-99.9,-100.00,ESE,112,2.0,7.0,-999,0.00,,,-99.99,WeatherLink 5.4,2013-04-14 21:30:00,
2013-04-14 18:00:00,53.0,-99.9,-100.00,ESE,112,2.0,7.0,-999,0.00,,,-99.99,WeatherLink 5.4,2013-04-14 22:00:00,
2013-04-14 18:30:00,52.9,-99.9,-100.00,ESE,112,2.0,8.0,-999,0.00,,,-99.99,WeatherLink 5.4,2013-04-14 22:30:00,
2013-04-14 19:00:00,52.4,-99.9,-100.00,ESE,112,3.0,8.0,-999,0.00,,,-99.99,WeatherLink 5.4,2013-04-14 23:00:00,
2013-04-14 19:30:00,51.9,-99.9,-100.00,ESE,112,2.0,7.0,-999,0.00,,,-99.99,WeatherLink 5.4,2013-04-14 23:30:00,
2013-04-14 20:00:00,51.3,-99.9,-100.00,ESE,112,2.0,9.0,-999,0.00,,,-99.99,WeatherLink 5.4,2013-04-15 00:00:00,
2013-04-14 20:30:00,50.4,-99.9,-100.00,ESE,112,2.0,7.0,-999,0.00,,,-99.99,WeatherLink 5.4,2013-04-15 00:30:00,
2013-04-14 21:00:00,49.4,-99.9,-100.00,ESE,112,3.0,8.0,-999,0.00,,,-99.99,WeatherLink 5.4,2013-04-15 01:00:00,
2013-04-14 21:30:00,48.5,-99.9,-100.00,ESE,112,3.0,7.0,-999,0.00,,,-99.99,WeatherLink 5.4,2013-04-15 01:30:00,
2013-04-14 22:00:00,48.2,-99.9,-100.00,ESE,112,2.0,7.0,-999,0.00,,,-99.99,WeatherLink 5.4,2013-04-15 02:00:00,
2013-04-14 22:30:00,48.2,-99.9,-100.00,ESE,112,3.0,8.0,-999,0.00,,,-99.99,WeatherLink 5.4,2013-04-15 02:30:00,
2013-04-14 23:00:00,47.9,-99.9,-100.00,ESE,112,4.0,8.0,-999,0.00,,,-99.99,WeatherLink 5.4,2013-04-15 03:00:00,
2013-04-14 23:30:00,47.9,-99.9,-100.00,ESE,112,5.0,9.0,-999,0.00,,,-99.99,WeatherLink 5.4,2013-04-15 03:30:00,